Location: Gleizolles
(44.4833°N, 6.7667°E)
Time: 15:51:15
(UTC+00:00)

Altair - Pass Details

Date: 25 June 2024
Orbit: 1502 x 1681 km, 47.2° (Epoch: 13 July)

Event Time Altitude Azimuth Distance (km) Brightness Sun altitude
Rises 08:22:40 0° 291° (WNW) 4,766 9.7 45.6°
Reaches altitude 10° 08:26:41 10° 276° (W) 3,809 9.3 46.3°
Maximum altitude 08:33:20 21° 232° (SW) 3,051 9.0 47.4°
Drops below altitude 10° 08:40:09 10° 188° (S) 3,890 9.8 48.6°
Sets 08:44:20 0° 174° (S) 4,894 10.3 49.3°
